{"data":{"norad_id":48793,"epoch":"2026-09-20T04:45:38.088000Z","epoch_age_seconds":47955,"freshness":"FRESH","line1":"1 48793U 21045AC  26263.19835750  .00001659  00000+0  43709-2 0  9995","line2":"2 48793  87.8985 240.2533 0001888  73.2862 286.8475 13.15566238256845","mean_motion":13.15566238,"eccentricity":0.0001888,"inclination_deg":87.8985,"raan_deg":240.2533,"arg_perigee_deg":73.2862,"mean_anomaly_deg":286.8475,"bstar":0.0043709,"rev_number":25684,"period_min":109.45857064477,"perigee_km":1200.2717514963,"apogee_km":1203.1338990143,"semimajor_km":7579.8398252553,"source":"CELESTRAK","updated_at":"2026-09-20T09:00:44.620712Z"}}